Overview Statistics Trail Chart Weather Telemetry Raw packets
 

This is the latest recevied weather packets stored in our database for station/object CT2IRJ-11. If no packets are shown the sender has not sent any weather packets the latest 10 day(s).

<< 111 112 113 114 115 >>
Time Temp. Humidity Pressure Rain* Wind** Luminosity Snow
1787773805 20.56° C 81% 1012.5 hPa 0 mm - 0 W/m² -
1787773506 20.56° C 81% 1012.2 hPa 0 mm - 0 W/m² -
1787772906 20.56° C 80% 1012.2 hPa 0 mm - 0 W/m² -
1787772605 20.56° C 79% 1012.2 hPa 0 mm - 0 W/m² -
1787772307 21.11° C 78% 1012.2 hPa 0 mm - 0 W/m² -
1787772006 21.11° C 78% 1012.2 hPa 0 mm - 0 W/m² -
1787771709 21.11° C 78% 1012.2 hPa 0 mm - 0 W/m² -
1787771406 21.11° C 77% 1012.2 hPa 0 mm - 2 W/m² -
1787771105 21.11° C 77% 1011.9 hPa 0 mm - 3 W/m² -
1787770805 21.11° C 76% 1011.9 hPa 0 mm - 6 W/m² -
1787770505 21.67° C 75% 1011.5 hPa 0 mm - 8 W/m² -
1787770206 21.67° C 74% 1011.9 hPa 0 mm - 12 W/m² -
1787769906 21.67° C 73% 1011.5 hPa 0 mm - 17 W/m² -
1787769606 22.22° C 73% 1011.9 hPa 0 mm - 26 W/m² -
1787769306 22.22° C 71% 1011.9 hPa 0 mm - 45 W/m² -
1787769006 22.22° C 71% 1011.9 hPa 0 mm - 53 W/m² -
1787768705 22.22° C 70% 1011.9 hPa 0 mm - 56 W/m² -
1787768406 22.22° C 71% 1011.5 hPa 0 mm - 52 W/m² -
1787768106 22.22° C 71% 1011.9 hPa 0 mm - 65 W/m² -
1787767808 22.22° C 70% 1011.9 hPa 0 mm - 55 W/m² -
1787767505 22.22° C 70% 1011.5 hPa 0 mm - 53 W/m² -
1787767205 22.78° C 70% 1011.9 hPa 0 mm - 59 W/m² -
1787766906 22.78° C 72% 1011.5 hPa 0 mm - 46 W/m² -
1787766605 22.78° C 73% 1011.2 hPa 0 mm - 61 W/m² -
1787766306 22.78° C 73% 1011.5 hPa 0 mm - 69 W/m² -

* Rain latest hour (hover to see other rain measurements)
** Current wind speed in m/s (hover to see current wind gust speed)